Hors Challenge

La ronde des Binômes de neige à Dergneau (10.00 km)

vendredi 15 décembre 2017

Le classement original se trouve sur : http://ultratiming.be/
 
LA RONDE DES BINÔMES DE NEIGE - DERGNEAU
DISTANCE : 9.98 km
vendredi 15 décembre 2017
 
Place dos Binôme Catégorie Pl/cat Temps temps/km Vitesse
1 504 KESTELYN MINFORGE GUILLAUME BAPTISTE HOMME 1 00:32:54 03:18 18.20
2 416 CABY VANDEMEULEBROUCKE YVES DIMITRI HOMME 2 00:34:52 03:30 17.17
3 500 SIMOENS DEWAILLY VICTOR REMI HOMME 3 00:35:02 03:31 17.09
4 43 DILLIES BOURGOIS GÉRÉMY PIERRE-ELOI HOMME 4 00:36:03 03:37 16.61
5 478 RIEMAEKER DESMET STEVEN RUBEN HOMME 5 00:36:09 03:37 16.56
6 552 GOBBE DARQUENNE GUILLAUME NICOLAS HOMME 6 00:36:42 03:41 16.32
7 517 GRIMOUPREZ SOTTIAUX ROBIN JULIEN HOMME 7 00:36:42 03:41 16.32
8 316 MESSIAEN MESSIAEN XAVIER ROMAIN HOMME 8 00:36:51 03:42 16.25
9 388 CLAISSE SOTTIAUX SÉBASTIEN JOËL HOMME 9 00:37:28 03:45 15.98
10 210 PETIT DUMONT FLORA MORGANE MIXTE 1 00:39:06 03:55 15.31
11 82 LECLERCQ CHENUT OLIVIER BENOÎT HOMME 10 00:39:30 03:57 15.16
12 546 DEROUBAIX DEROUBAIX DAVID CLARISSE MIXTE 2 00:39:42 03:59 15.08
13 593 THIRAN NAVEZ THOMAS GUILLAUME HOMME 11 00:40:45 04:05 14.69
14 502 BLANWART VINCHANT OLIVIA EMMANUEL HOMME 12 00:41:15 04:08 14.52
15 582 FERON ROSIER FRANÇOIS-XAVIER ANDY HOMME 13 00:42:06 04:13 14.22
16 474 GROENEWEG LIEVENS JORICH ROY HOMME 14 00:42:10 04:14 14.20
17 602 BEVERAEJIR QUARME MICHAEL CHRIS HOMME 15 00:42:13 04:14 14.18
18 102 MARICHAL DANGREAU CHRISTELLE DOROTHÉE DAME 1 00:42:13 04:14 14.18
19 248 ERICX GOFFINET EDDY EDDY HOMME 16 00:43:28 04:21 13.78
20 390 OOSTERLYNCK STOCKMAN NATACHA JULES MIXTE 3 00:43:33 04:22 13.75
21 481 MARCHAND DEROOSE DEBORAH KURT MIXTE 4 00:43:44 04:23 13.69
22 244 WALLEMACQ GILLET DAVID THIERRY HOMME 17 00:44:39 04:28 13.41
23 512 QUIQUE CASTIAUX REMY JONATHAN HOMME 18 00:44:52 04:30 13.35
24 137 DE TANDT DELITTE MICHEL MICHEL HOMME 19 00:44:56 04:30 13.33
25 208 BORMS DUJARDIN CATHERINE NATHALIE DAME 2 00:45:18 04:32 13.22
26 199 DEVENYNS DRUART JÉRÉMY DAMIEN HOMME 20 00:45:58 04:36 13.03
27 610 MESSIAEN MESSIAEN JONATHAN JEREMY HOMME 21 00:46:10 04:38 12.97
28 575 DUPRET DILLIES BERNARD DANNY HOMME 22 00:46:49 04:41 12.79
29 336 CARTON-DELCOURT MULIER THOMAS BRUNO HOMME 23 00:46:53 04:42 12.77
30 400 BOUTRY VALLEZ NATHAN CYRIL HOMME 24 00:47:07 04:43 12.71
31 222 LEQUEUE FICHELLE CYRIL CAMILLE MIXTE 5 00:47:12 04:44 12.69
32 330 VERHAEGHE MOULIN CAROLE VIRGINIE DAME 3 00:47:15 04:44 12.67
33 26 BUFFIN BINTEIN NICOLAS DAMIEN HOMME 25 00:47:19 04:44 12.65
34 301 LECOMTE MAHIEU LAURENT LUDOVIC HOMME 26 00:47:20 04:45 12.65
35 94 FREVILLE CNOCQUART LUDOVIC GEOFFREY HOMME 27 00:48:08 04:49 12.44
36 132 DELHAYE DELHAYE JEAN-JACQUES THÉO HOMME 28 00:48:09 04:49 12.44
37 149 BACHY DELPIERRE BENJAMIN JIMMY HOMME 29 00:48:21 04:51 12.38
38 452 BOURGI WERBROEK BLAISE PATRICK HOMME 30 00:48:28 04:51 12.35
39 464 VERTHE VERTHE SYLVIE ELS DAME 4 00:48:32 04:52 12.34
40 440 DE VAERE VERDEBOUT JEAN-MICHEL VINCENT HOMME 31 00:49:04 04:55 12.20
41 544 DELBECQ JONNAERT AURELIE DAVID MIXTE 6 00:49:12 04:56 12.17
42 100 MEURIS COURIER LIONEL JUSTINE MIXTE 7 00:49:13 04:56 12.17
43 537 MASELIS CAMBERLEN LAURENT PASCAL HOMME 32 00:49:19 04:57 12.14
44 326 VAN MIEGHEM MOMMENS NICOLAS GEOFFROY HOMME 33 00:49:24 04:57 12.12
45 206 DELMEULLE DUFOUR MANUEL MICHEL HOMME 34 00:49:46 04:59 12.03
46 498 PROVOYEUR RICHART TOM MARTIN HOMME 35 00:49:48 04:59 12.02
47 608 CARETTE VANDEWIELE NICOLAS FLORENT HOMME 36 00:49:52 05:00 12.01
48 96 DEMARQUE COCHEZ BAPTISTE NICOLAS HOMME 37 00:49:59 05:01 11.98
49 491 VANDERMEGRSEN BILLET GREGORY JOSEF HOMME 38 00:50:02 05:01 11.97
50 289 LIBBRECHT LEROY GONCALVES ISABELLE LAURENT MIXTE 8 00:50:03 05:01 11.96
51 356 FOULON PORTANTE FRÉDÉRIC BRYAN HOMME 39 00:50:08 05:01 11.94
52 35 DE BECKER BOITEAUX ELODIE ISABELLE DAME 5 00:50:15 05:02 11.92
53 510 NICOLAS BEGHIN JF MARC-ALFRED HOMME 40 00:50:22 05:03 11.89
54 578 DELKEYE VAN BRUYSSEL DAVID AURELIE MIXTE 9 00:50:33 05:04 11.85
55 496 MONTEGNIES MONTEGNIES JEAN-JACQUES BENOIT HOMME 41 00:50:34 05:04 11.84
56 429 DEVROEDE DEROUBAIX FRANÇOIS NORBERT HOMME 42 00:50:35 05:04 11.84
57 238 FOSSION GALAND DENIS JONAS HOMME 43 00:50:37 05:04 11.83
58 128 ANRYS DELBROECK QUENTIN STANISLAS HOMME 44 00:50:42 05:05 11.81
59 167 HAINAUT DEPELCHIN MARTINE BRUNO MIXTE 10 00:50:59 05:07 11.74
60 402 DAUBY VAN MAELDERGEM ??? LUCIE DAME 6 00:51:05 05:07 11.72
61 306 DESMONS MALVOISIN FLORIAN RICHARD HOMME 45 00:51:12 05:08 11.69
62 606 DETEMMERMAN DELPIERRE ROMAIN FANNY MIXTE 11 00:51:12 05:08 11.69
63 324 SLUYS MINET JIMMY DIDRIC HOMME 46 00:51:22 05:09 11.66
64 344 DEBAVAY OPSOMER CAROLINE JEAN-CHRISTOPHE MIXTE 12 00:51:26 05:09 11.64
65 542 MOULIN CEDRIC XXX   00:51:33 05:10 11.62
66 181 HELLIN DESCHEPPER WOUTER VINCENT HOMME 47 00:51:33 05:10 11.62
67 472 DHANDT CLERX ARNAUD GIL HOMME 48 00:51:34 05:10 11.61
68 600 THIRAN THIRAN RODRIGUE GREGOIRE HOMME 49 00:51:40 05:11 11.59
69 338 PENNINCKX MUSCH JÉRÔME DAMIEN HOMME 50 00:51:47 05:11 11.56
70 598 MANDOU NIANDEMEULEBOURK ANNE SOPHIE DAME 7 00:52:00 05:13 11.52
71 265 DIERICK HORNEBECQ JACQUES CHRISTIAN HOMME 51 00:52:20 05:15 11.44
72 5 ROLET ALTRUY MOUNIA SYLVAIN MIXTE 13 00:52:24 05:15 11.43
73 604 GRUSON NAWEL ERIC BENOIT HOMME 52 00:52:33 05:16 11.39
74 74 VERGOTE CARPENTIER SANDRINE CÉLINE DAME 8 00:52:47 05:17 11.34
75 195 ZENNER DOCQUIER VINCENT JÉRÉMIE HOMME 53 00:53:46 05:23 11.14
76 334 DECOCK MOULIN BENOÎT KRISTOF HOMME 54 00:53:50 05:24 11.12
77 242 GLORIEUX GEETS CÉDRIC PIERRE HOMME 55 00:53:56 05:24 11.10
78 521 COLIN FLAMME KEVIN KEVIN HOMME 56 00:54:00 05:25 11.09
79 98 VERHELST COONAERT FRÉDÉRIC JEAN-MICHEL HOMME 57 00:54:09 05:26 11.06
80 18 CURTO BELLON BENOÎT ELENA MIXTE 14 00:54:17 05:26 11.03
81 322 EVRARD MICHEL NICOLAS FRÉDÉRIC HOMME 58 00:54:31 05:28 10.98
82 564 STEIVIER CORBISIER BALEND BENOIT GUILLAUME HOMME 59 00:54:52 05:30 10.91
83 515 GOEBEERT WANGERMEZ VERONIQUE GREGORY MIXTE 15 00:54:52 05:30 10.91
84 332 DELCAMPE MOULIN JORDY JENNIFER DAME 9 00:55:01 05:31 10.88
85 212 DELBART DUMOULIN MARIE-LAURE EMILIE DAME 10 00:55:02 05:31 10.88
86 80 VANDERSTRICHELEN CAZIER ISABELLE LAURENT MIXTE 16 00:55:14 05:32 10.84
87 540 CARDON VIFQUIN CHRISTOPHE FABRICE HOMME 60 00:55:35 05:34 10.77
88 114 VANDENBULCKE DECEUNINCK LAURENCE CAROLINE DAME 11 00:55:41 05:35 10.75
89 554 DE NESTERRE BRADELEY XXX   00:56:20 05:39 10.63
90 591 DE MEESTER ROMAIN XXX   00:56:26 05:39 10.61
91 550 DEWULF DUBUISSON MATTHIEU MIKE HOMME 61 00:56:37 05:40 10.58
92 145 DURANT DELITTE MATTHIEU RÉMI HOMME 62 00:56:46 05:41 10.55
93 476 BARCKELAND DEWAELE TOM CINDY MIXTE 17 00:56:53 05:42 10.53
94 378 LECOMTE SARLET PATRICK MARIE-HÉLÈNE MIXTE 18 00:56:56 05:42 10.52
95 263 HOLVOET HOLVOET VINCENT CATHERINE MIXTE 19 00:56:57 05:42 10.51
96 104 DEGUELDRE DE BRUYN DAVID MURIELLE MIXTE 20 00:57:05 05:43 10.49
97 295 FRASTREZ LIBBRECHT JOEL ISABELLE MIXTE 21 00:57:07 05:43 10.48
98 364 FRIQUE RENARD PIERRE MARIE-ANNE MIXTE 22 00:57:16 05:44 10.46
99 571 MOONENS PETIT JEAN-LOUIS JEAN-NOEL HOMME 63 00:57:27 05:45 10.42
100 368 DUBRUILLE ROLET MAËLLE BJÖRN MIXTE 23 00:57:37 05:46 10.39
101 586 VANDERVIERS THIRAN JEAN-MARC CHRISTOPHE HOMME 64 00:57:37 05:46 10.39
102 392 STORME STORME RAPHAËLLE RÉMY MIXTE 24 00:57:39 05:47 10.39
103 627 DUVINAGE VANDENBUELKE MARIE LAMBERT MIXTE 25 00:57:53 05:48 10.34
104 438 DERVAUX VANSTEENBRUGGE DOMINIQUE GAËTAN HOMME 65 00:57:53 05:48 10.34
105 370 BONFIGLIO ROLLAND PHILIPPE CALOGERO HOMME 66 00:57:59 05:49 10.33
106 20 ROCCARO BERNARD KATTY GUISEPPE MIXTE 26 00:58:00 05:49 10.32
107 153 DEDEYCKER DELPLACE VIVIAN MARIE MIXTE 27 00:58:07 05:49 10.30
108 124 LUST DELAUNOY SIMON CHRISTOPHE HOMME 67 00:58:20 05:51 10.26
109 573 VELGHE VANDEWATTYNE JULIEN ARNAUD HOMME 68 00:58:21 05:51 10.26
110 259 BECQUET HEMPTE SYLVIE ANNICK DAME 12 00:58:33 05:52 10.23
111 487 LAMBRECHT ROUSSEL QUENTIN FREDERIC HOMME 69 00:58:39 05:53 10.21
112 232 ROGGEMAN FOUTREYN THOMAS QUENTIN HOMME 70 00:58:43 05:53 10.20
113 360 FROIDURE RAVIART SOPHIE NADINE DAME 13 00:58:57 05:54 10.16
114 418 RENARD VANDEMEULEBROUCKE KÉVIN JORDAN HOMME 71 00:59:00 05:55 10.15
115 635 LECLERCQ RONDELAERE TOM LOUISE MIXTE 28 00:59:03 05:55 10.14
116 275 CAMPENER LEDENT JOHAN JULIEN HOMME 72 00:59:05 05:55 10.13
117 358 MASAI RAMU ANNICK CHRISTIAN MIXTE 29 00:59:16 05:56 10.10
118 427 PAREZ VANDERSTRICHELEN SYLVIE LAURENT MIXTE 30 00:59:22 05:57 10.09
119 56 ASSELOOS BRUNCLAIR MARIE SOPHIE DAME 14 00:59:31 05:58 10.06
120 303 MAHIEU MAHIEU FRÉDÉRIC DAVID HOMME 73 00:59:35 05:58 10.05
121 569 RENAUD D'HONT LAURENT VINCENT HOMME 74 00:59:36 05:58 10.05
122 279 DELCOIGNE LEERSNYDER JOËL GEORGES HOMME 75 00:59:53 06:00 10.00
123 7 HUYGHE ANCART SÉBASTIEN EMMANUEL HOMME 76 1:00:00 06:01 9.98
124 66 DELFOSSE CAMBIER ANNE-SOPHIE MICKAËL MIXTE 31 1:00:03 06:01 9.97
125 535 HENNEBERT MASSCHELEIN PATRICIA MARIE DAME 15 1:00:07 06:01 9.96
126 470 TARANTO PANCHERI STEPHANIE PATRICE MIXTE 32 1:00:09 06:02 9.95
127 92 CHRISTIAENS CLOET JEAN-CHRISTOPHE CINDY MIXTE 33 1:00:30 06:04 9.90
128 130 DELECOEUILLERIE DELCROIX MURIEL CÉLINE DAME 16 1:00:39 06:05 9.87
129 436 VANROBAYS VANROBAYS FLORENCE MARIE-LAURE DAME 17 1:00:40 06:05 9.87
130 446 JUCHTMANS WAELES ANNE-SOPHIE PIERRE MIXTE 34 1:00:45 06:05 9.86
131 110 MEULYSER DE VOS OLIVIER NICOLAS HOMME 77 1:00:50 06:06 9.84
132 559 VAN CAENEGEM THEMONT LAURIE VINCENT MIXTE 35 1:00:56 06:06 9.83
133 220 WIELFART FEUILLET JOHAN BERNARD HOMME 78 1:00:57 06:06 9.82
134 318 DEPELCHIN MESSIEN SOPHIE ANNE-CÉCILE MIXTE 36 1:01:02 06:07 9.81
135 78 MEURIST CASSE HENRI JOËL HOMME 79 1:01:13 06:08 9.78
136 431 LOECKX VANHEYSTE JENNIFER CLÉMENTINE DAME 18 1:01:20 06:09 9.76
137 267 KAIN KAIN EMILIE SÉVERINE DAME 19 1:01:24 06:09 9.75
138 214 BURY DUPONT DOMINIQUE THIERRY HOMME 80 1:01:32 06:10 9.73
139 3 GAHIDE ACKERMAN INGRID DELPHINE DAME 20 1:01:33 06:10 9.73
140 54 DRAMAIX BRULARD CÉCILE MANON DAME 21 1:01:34 06:10 9.73
141 548 MOL DELOBBE ALEXANDRE THOMAS HOMME 81 1:01:35 06:10 9.72
142 483 VAN CEUNEBROECK MAGNIER SOPHIE MICHEL MIXTE 37 1:01:41 06:11 9.71
143 414 DI LAURO MARTINO VANCOPPENOLLE GUY HOMME 82 1:01:44 06:11 9.70
144 228 DUQUESNE FOUCART MIKE RAPHAËL HOMME 83 1:01:53 06:12 9.68
145 485 DESMEDT WANIN LUDIVINE ARMELLE DAME 22 1:02:06 06:13 9.64
146 24 THIELEMANS BERTRAND THOMAS SÉBASTIEN HOMME 84 1:02:07 06:13 9.64
147 216 MARTINAGE DUVINAGE LUCIE KAREN DAME 23 1:02:14 06:14 9.62
148 312 MAHUT MATTHYS PASCAL NICOLAS HOMME 85 1:02:21 06:15 9.60
149 384 VAN DAMME SEYNAEVE ANN WIM MIXTE 38 1:02:28 06:16 9.59
150 525 VANDENBROUCKE SCOLAS BENEDICTE ANNE-LAURE DAME 24 1:02:33 06:16 9.57
151 177 BERNARD DERVAUX PHILIPPE CÉCILE MIXTE 39 1:02:34 06:16 9.57
152 352 GHELEYNS PLANCQ AMÉLIA ODILE MIXTE 40 1:02:37 06:16 9.56
153 450 BONNIER WANNEZ AMAURY VIRGINIE MIXTE 41 1:02:52 06:18 9.52
154 346 HISMANS PARENT LAURE DELPHINE DAME 25 1:03:08 06:20 9.48
155 442 ROZEL VINCHENT ARIANE GAUTHIER MIXTE 42 1:03:16 06:20 9.46
156 62 LELEU BURTON CLOÉ DONOVAN MIXTE 43 1:03:26 06:21 9.44
157 462 LETERMO BRAGNENIER INES ROBIN MIXTE 44 1:03:34 06:22 9.42
158 297 LOUETTE LORTHIOIR ARNAUD FRÉDÉRIC HOMME 86 1:03:40 06:23 9.40
159 328 MARTIN MOULART ANNE JULIE DAME 26 1:03:43 06:23 9.40
160 12 VAN DRIESSCHE AUDOOR ALAIN TAO HOMME 87 1:03:43 06:23 9.40
161 299 PICRON MAHIEU EDDY OLIVIER HOMME 88 1:03:49 06:24 9.38
162 493 WEYTISMEN MULKOUSKI FREDERIC VIRGINIE MIXTE 45 1:03:52 06:24 9.38
163 409 FATREZ VAN NIEUWENHUYZE ERIC MARIE MIXTE 46 1:04:00 06:25 9.36
164 122 VANCAUWENBERGHE DEDEURWAERDER LESLIE SOPHIE DAME 27 1:04:37 06:28 9.27
165 561 STEINIER PARDONCE PHILIPPE ERIC HOMME 89 1:04:38 06:29 9.26
166 457 STROBBE TUYTTENS CARL YVES HOMME 90 1:04:41 06:29 9.26
167 162 TETELAIN BOITE CÉLINE LUCIDILE DAME 28 1:04:46 06:29 9.25
168 374 MALRAIT RYCKEBOSCH LUDWIG GERRY HOMME 91 1:05:01 06:31 9.21
169 112 CHEVAL DEBILLEMONT MURIEL CAROLINE DAME 29 1:05:10 06:32 9.19
170 108 FLAMME DE SMET ALEXANDRINE MARIE DAME 30 1:05:37 06:35 9.13
171 70 VANCAUWENBERGHE CARBONNIER LAURENT WERNER HOMME 92 1:05:37 06:35 9.13
172 281 DECAIGNY LEFEVRE CÉCILE FRANÇOISE DAME 31 1:05:39 06:35 9.12
173 76 MATTELIN CARTEUS ELINE MARIE-ALINE DAME 32 1:05:40 06:35 9.12
174 158 BERLENGER DELSANNE TANGUY VANESSA MIXTE 47 1:05:51 06:36 9.09
175 64 DEMAN BURY GAYLORD MAXIME HOMME 93 1:05:51 06:36 9.09
176 236 MINET GAILLET CHRISTOPHE FRANÇOIS HOMME 94 1:05:52 06:36 9.09
177 224 MANCHE FONTAINE THIERRY DAVID HOMME 95 1:05:54 06:36 9.09
178 641 DECAMP MAES LEONIE XAVIER MIXTE 48 1:05:55 06:36 9.08
179 618 LATOUR DORCHY SEBASTIEN JEAN-PHILIPPE HOMME 96 1:05:55 06:36 9.08
180 620 LEQUENNE MASURE JEAN-FRANÇOIS SANDRA MIXTE 49 1:06:02 06:37 9.07
181 396 LEQUENNE THERIN VIRGINIE LAETITIA DAME 33 1:06:02 06:37 9.07
182 218 DEGRANSART FEIHLE GRATIENNE JOHAN MIXTE 50 1:06:10 06:38 9.05
183 60 FOUCART BRUYÈRE STÉPHANIE SIMON MIXTE 51 1:06:15 06:38 9.04
184 342 VANTORRE NORTIER DAVID SÉBASTIEN HOMME 97 1:06:34 06:40 9.00
185 340 DAMMAN NEVELESTYN LÉA THOMAS MIXTE 52 1:06:38 06:41 8.99
186 596 DOGIMONT DETEMMERMAN TOMMY AMANDINE MIXTE 53 1:07:20 06:45 8.89
187 185 SOYEZ DEVENYNS CÉCILE LUCILE DAME 34 1:07:24 06:45 8.88
188 257 D'ARGEMBEAI HANSSENS ANNE CHRISTOPHE MIXTE 54 1:07:24 06:45 8.88
189 637 PARENT DUMOULIN ARNAUD QUENTIN HOMME 98 1:07:27 06:46 8.88
190 382 JOURET SERVAIS NATHALIE NICOLAS MIXTE 55 1:07:37 06:47 8.86
191 320 KOUPLEVITCH MEUNIER JÉRÉMY YULIA MIXTE 56 1:07:39 06:47 8.85
192 633 FOURDIN DUMONT YSEULT ANAIS DAME 35 1:07:45 06:47 8.84
193 444 BEAURY VOITURIER LAURENT CHRISTOPHE HOMME 99 1:07:54 06:48 8.82
194 523 BOURLART DUBUIS SYLVAIN YOHAN HOMME 100 1:07:54 06:48 8.82
195 240 HARMEGNIES GARNIER QUENTIN BÉRENGÈRE MIXTE 57 1:08:09 06:50 8.79
196 261 TOUSSAINT HEUGHEBAERT FLORENCE SANDRINE DAME 36 1:08:19 06:51 8.76
197 404 NICOLETTI VAN MOORLEGHEM EMILIE VIRGINIE DAME 37 1:08:28 06:52 8.75
198 29 POUPART BLIECK CORENTIN NATHALIE MIXTE 58 1:08:29 06:52 8.74
199 468 MALFRERE MALFRERE FABRICE ROBIN HOMME 101 1:08:40 06:53 8.72
200 120 LERAT DECRUYENAERE CAROLINE SABINE DAME 38 1:08:43 06:53 8.71
201 308 ROUCKAERTS MARQUEGNIES CAPUCINE SARAH DAME 39 1:08:54 06:54 8.69
202 581 XXX XXX   1:09:13 06:56 8.65
203 41 DUPRET BOUCAU CÉLINE GENEVIÈVE DAME 40 1:09:37 06:59 8.60
204 422 REAL VANDER ELST LINE MATHIAS MIXTE 59 1:09:40 06:59 8.59
205 126 YPERSIEL DELBAUVE VÉRONIQUE JESSICA DAME 41 1:10:00 07:01 8.55
206 226 BAGUET FOSTIEZ CHRISTELLE PATRICE MIXTE 60 1:10:10 07:02 8.53
207 291 DECOSTER LESOIL HARMONY FRÉDÉRIC MIXTE 61 1:10:11 07:02 8.53
208 519 AXENSALVA BOUCHEZ MARC RENAUD HOMME 102 1:10:55 07:06 8.44
209 88 LEMAIRE CLEENWERCK STÉPHANE EDDY HOMME 103 1:11:07 07:08 8.42
210 163 RIBAUVILLE BONFIGLIO GIACINTO NATHALIE MIXTE 62 1:11:10 07:08 8.41
211 39 FICHELLE BONTE FLORENCE STÉPHANIE DAME 42 1:11:38 07:11 8.36
212 614 DELARBRE BOUDART MARIE DELPHINE DAME 43 1:11:44 07:11 8.35
213 22 COLLIE BERTHE VÉRONIQUE ANNE DAME 44 1:11:48 07:12 8.34
214 51 OANA BRISMÉE CHARLOTTE MARIA MARZA DAME 45 1:11:50 07:12 8.34
215 348 BETERMIEZ PEUTTE SYLVIE MAGUY DAME 46 1:11:51 07:12 8.33
216 202 DUBOIS DUBOIS DAVID NAÏS MIXTE 63 1:12:01 07:13 8.31
217 175 COSSEMENT DEROISSART PHILIPPE CAROLINE MIXTE 64 1:12:46 07:17 8.23
218 151 CUVELIER DELPLACE AXEL NATHALIE MIXTE 65 1:12:52 07:18 8.22
219 106 DE VIJLDER DE RUDDER SASKIA LAURENCE DAME 47 1:12:53 07:18 8.22
220 143 LECLERCQ DELITTE MYRIAM BETTY DAME 48 1:12:59 07:19 8.20
221 277 VELGHE LEDOUX MIREILLE ALICE DAME 49 1:13:17 07:21 8.17
222 293 BOULANGER LIBBERECHT EMILIE EMILIE DAME 50 1:13:20 07:21 8.17
223 466 LEGRAND BUSCOT BOURDON SOPHIE ISABELLE DAME 51 1:13:34 07:22 8.14
224 234 LEMAIRE FRANÇOIS CHRISTOPHE PERRINE MIXTE 66 1:14:11 07:26 8.07
225 16 DELMARRE BAYART CHRISTINE PIERRE MIXTE 67 1:14:14 07:26 8.07
226 85 DECOCK CHOMY EMELINE FANNY DAME 52 1:14:16 07:27 8.06
227 354 LECLERCQ PLATEAU VÉRONIQUE SIBYLLE DAME 53 1:14:59 07:31 7.99
228 271 COUPÉ LECLERCQ EDDY SABINE MIXTE 68 1:14:59 07:31 7.99
229 398 PETIT TOMASZEWSKI CATHERINE ISABELLE DAME 54 1:15:35 07:34 7.92
230 420 ALLEMAN VANDENBULCKE HÉLÈNE NATHSCHA DAME 55 1:15:41 07:35 7.91
231 283 POILLON LEMAIRE CHRISTELLE DOMINIQUE DAME 56 1:15:46 07:36 7.90
232 527 DELCOURTE LEMAN INGE COLETTE DAME 57 1:15:48 07:36 7.90
233 118 LARCIN DECONDÉ AXELLE EMMANUEL MIXTE 69 1:16:06 07:38 7.87
234 197 MOULIN DOYEN FRANÇOISE MARILYN DAME 58 1:16:06 07:38 7.87
235 612 WAUTHY MOREAU EDDY LIONEL HOMME 104 1:16:08 07:38 7.86
236 273 LATOUR LECONTE INÈS JEANNE DAME 59 1:17:11 07:44 7.76
237 310 DELEYE MASSART GILDA VIRGINIE DAME 60 1:17:18 07:45 7.75
238 173 VERVAECKE DERMAUT PASCALE SOPHIE DAME 61 1:17:30 07:46 7.73
239 116 WESTRADE DECOCK BÉATRICE BRUNO MIXTE 70 1:17:33 07:46 7.72
240 362 RAUCQ RENARD NOÉMIE VIRGINIE DAME 62 1:17:41 07:47 7.71
241 253 RAUCQ GRYMONPREZ ISABELLE STÉPHANIE DAME 63 1:17:41 07:47 7.71
242 380 LEPOUTRE SCHUDDINCK CHRISTOPHER VINCENT HOMME 105 1:17:44 07:47 7.70
243 45 BALCAEN BRASME CHRISTELLE EMILIE DAME 64 1:18:16 07:51 7.65
244 48 MESTDAGH BRASSART PATRICK DAVID HOMME 106 1:18:59 07:55 7.58
245 31 DESLÉE BOGAERT CATHERINE ERIC MIXTE 71 1:19:25 07:57 7.54
246 191 DUPONT DEVRED JENNIFER GUY MIXTE 72 1:19:30 07:58 7.53
247 179 CARPENTIER DESCAMPS NICOLAS SYLVIE MIXTE 73 1:19:41 07:59 7.51
248 1 JOURET BRAQUENIER BENOÎT JULIEN HOMME 107 1:20:14 08:02 7.46
249 155 ANSEEUW DELPLANQUE LOUISE ANAÏS DAME 65 1:20:15 08:02 7.46
250 459 VERTOMMEN CARPENTIER CATHY ANGELIQUE DAME 66 1:20:16 08:03 7.46
251 407 POLLET VAN NESTE CAROLINE ESTELLE DAME 67 1:20:17 08:03 7.46
252 135 VANNESTE DELHAYE ANNE CAROLINE DAME 68 1:20:47 08:06 7.41
253 147 JOURET DELOBEL EMMANUELLE BENOÎT MIXTE 74 1:21:39 08:11 7.33
254 366 SENELLE RICHOUX BÉNÉDICTE PAUL-VALÉRY MIXTE 75 1:21:48 08:12 7.32
255 372 STYPEREK ROSSELLO JACQUELINE JACQUELINE DAME 69 1:22:18 08:15 7.28
256 639 BOURGEOIS BOURGEOIS EMELINE ELISA DAME 70 1:24:44 08:29 7.07
257 230 VERTOMMEN FOURDIN STÉPHANIE SABRINA DAME 71 1:25:12 08:32 7.03
258 251 WIELEMANS GRELL GEORG DANIEL HOMME 108 1:25:23 08:33 7.01
259 165 MOULIN DEMANET SOPHIE ANNE DAME 72 1:25:24 08:33 7.01
260 255 GOSSELIN HAMDOUN LAURA BLAISE MIXTE 76 1:25:24 08:33 7.01
261 394 MOREAU TERESINSKI BERNARD STEPHANY MIXTE 77 1:26:15 08:39 6.94